Regional Weather Roundup
Issued by NWS Little Rock, AR

Home | Current Version | Previous Version | Text Only | Print | Product List | Glossary On
Versions: 1 2 3 4 5 6 7 8 9 10 11 12 13 14 15 16 17 18 19 20 21 22 23 24 25 26 27 28 29 30 31 32 33 34 35 36 37 38 39 40 41 42 43 44 45 46 47 48 49 50
000
ASUS44 KLZK 300805
RWRLZK

WEATHER ROUNDUP FOR ARKANSAS
NATIONAL WEATHER SERVICE LITTLE ROCK AR
200 AM CST FRI JAN 30 2015

NOTE: "FAIR" INDICATES FEW OR NO CLOUDS BELOW 12,000 FEET WITH NO
SIGNIFICANT WEATHER AND/OR OBSTRUCTIONS TO VISIBILITY.

ARZ001-003-010-029-300900-
NORTHWEST ARKANSAS

CITY           SKY/WX    TMP DP  RH WIND       PRES   REMARKS
FAYETTEVILLE   CLEAR     29  25  85 CALM      30.50S
FORT SMITH     MOCLDY    38  28  67 N7        30.50S
HARRISON       CLEAR     30  26  85 W6        30.48R WCI  24
BENTONVILLE    CLEAR     30  25  80 NE7       30.50S WCI  23
ROGERS         CLEAR     29  25  85 N6        30.50S WCI  23
SILOAM SPGS    CLEAR     30  19  64 NE3       30.50F
HIGHFILL       CLEAR     27  22  81 N8        30.49F WCI  19
$$

ARZ004-005-016-300900-
NORTH CENTRAL ARKANSAS

CITY           SKY/WX    TMP DP  RH WIND       PRES   REMARKS
BATESVILLE     CLEAR     36  27  69 NW6       30.48R
FLIPPIN        CLEAR     34  21  60 NW5       30.48S WCI  30
MTN HOME       CLEAR     30  25  81 NW3       30.47R
$$

ARZ040-041-300900-
WEST CENTRAL ARKANSAS

CITY           SKY/WX    TMP DP  RH WIND       PRES   REMARKS
MENA           MOCLDY    43  32  65 NE8       30.45S
MOUNT IDA      MOCLDY    31  28  89 CALM      30.44R
$$

ARZ009-017-025-026-028-300900-
NORTHEAST ARKANSAS

CITY           SKY/WX    TMP DP  RH WIND       PRES   REMARKS
CORNING        CLOUDY    36  28  75 N8        30.47R
JONESBORO      CLEAR     34  29  82 NW5       30.45R WCI  30
NEWPORT        CLEAR     34  28  79 NW8       30.48R WCI  27
WALNUT RIDGE   CLEAR     32  25  74 N7        30.46R WCI  26
BLYTHEVILLE    CLOUDY    40  32  73 N14       30.45R
$$

ARZ022-023-033-042-044-300900-
CENTRAL ARKANSAS

CITY           SKY/WX    TMP DP  RH WIND       PRES   REMARKS
LITTLE ROCK    PTCLDY    36  27  69 N7        30.47S
N LITTLE ROCK    N/A     38  31  77 N7        30.47S
JACKSONVILLE   PTCLDY    29  25  85 CALM      30.46S
SEARCY         CLEAR     28  26  92 CALM      30.49R
HOT SPRINGS    PTCLDY    38  29  70 CALM      30.46S
RUSSELLVILLE   CLEAR     29  26  89 CALM      30.47S
CLINTON        FAIR      37  27  65 N5        30.49R
$$

ARZ036-300900-
EAST ARKANSAS

CITY           SKY/WX    TMP DP  RH WIND       PRES   REMARKS
WEST MEMPHIS   CLOUDY    34  31  88 NW5       30.43R WCI  30
$$

ARZ050-053-066-070-073-300900-
SOUTHWEST ARKANSAS

CITY           SKY/WX    TMP DP  RH WIND       PRES   REMARKS
ARKADELPHIA    FAIR      34  32  92 CALM      30.48S
CAMDEN         CLEAR     32  28  86 CALM      30.47S
TEXARKANA      PTCLDY    40  31  70 NE3       30.46S
EL DORADO      PTCLDY    40  30  67 N3        30.47R
DE QUEEN       MOCLDY    33  31  92 CALM      30.46S
$$

ARZ056-057-069-300900-
SOUTHEAST ARKANSAS

CITY           SKY/WX    TMP DP  RH WIND       PRES   REMARKS
PINE BLUFF     CLEAR     36  29  75 N3        30.46S
STUTTGART      CLEAR     36  28  75 NW7       30.46R
MONTICELLO     CLEAR     40  31  70 N3        30.44S

$$





USA.gov is the U.S. government's official web portal to all federal, state and local government web resources and services.